weather.gov     
National Weather Service

Terminal Aerodrome Forecast
NWS Homepage
This page is being discontinued on March 12, 2014.
The same data is available at this site. Please update your bookmarks.
Thank you, and we apologize for the inconvenience.
Please send an email to SR-SRH.Webmaster@noaa.gov with any concerns.


Current Version
Previous Version:    01  02  03  04  05  06  07  08  09  10  11  12  13  14  15  16  17  18  19  20  21  22  23  24  25  26  27  28  29  30  
   31  32  33  34  35  36  37  38  39  40  41  
[Printable]
466
FTUS43 KGRB 202000 AAA
TAFAUW
TAF AMD
KAUW 202017Z 2020/2118 16006KT P6SM OVC012
     FM210300 16004KT 5SM BR OVC010
     FM210700 16005KT 4SM -FZDZ BR OVC008
      TEMPO 2109/2113 2SM -FZDZ BR OVC004
     FM211500 14007KT 5SM -FZDZSN BR OVC008=


U.S. Dept. of Commerce
NOAA National Weather Service
1325 East West Highway
Silver Spring, MD 20910
E-mail: w-nws.webmaster@noaa.gov
Page last modified: May 16, 2007
NATIONAL WEATHER SERVICE: for Safety, for Work, for Fun - FOR LIFE